TimePDT,TemperatureF,Dew PointF,Humidity,Sea Level PressureIn,VisibilityMPH,Wind Direction,Wind SpeedMPH,Gust SpeedMPH,PrecipitationIn,Events,Conditions,WindDirDegrees,DateUTC
12:53 AM,57.9,48.9,72,30.09,10.0,SW,3.5,-,0.00,Rain,Light Rain,230,2013-06-20 07:53:00
1:53 AM,55.9,51.1,84,30.10,10.0,SSW,8.1,-,0.03,Rain,Light Rain,200,2013-06-20 08:53:00
2:53 AM,55.0,52.0,89,30.09,8.0,South,9.2,-,0.01,Rain,Light Rain,190,2013-06-20 09:53:00
3:53 AM,54.0,51.1,90,30.07,10.0,SSW,9.2,-,0.02,,Overcast,200,2013-06-20 10:53:00
4:53 AM,54.0,51.1,90,30.07,10.0,SSW,9.2,-,0.00,,Overcast,200,2013-06-20 11:53:00
5:53 AM,54.0,51.1,90,30.08,10.0,SSW,5.8,-,0.00,Rain,Light Rain,210,2013-06-20 12:53:00
6:53 AM,54.0,51.1,90,30.08,7.0,South,3.5,-,0.05,Rain,Light Rain,190,2013-06-20 13:53:00
7:53 AM,55.0,51.1,86,30.07,10.0,SSW,4.6,-,0.00,,Mostly Cloudy,200,2013-06-20 14:53:00
8:53 AM,55.9,51.1,84,30.07,10.0,Variable,3.5,-,N/A,,Mostly Cloudy,0,2013-06-20 15:53:00
9:53 AM,57.9,51.1,78,30.08,10.0,Calm,Calm,-,N/A,,Mostly Cloudy,0,2013-06-20 16:53:00
10:08 AM,57.2,51.8,82,30.08,10.0,SW,3.5,-,N/A,,Overcast,230,2013-06-20 17:08:00
10:53 AM,59.0,50.0,72,30.07,10.0,SW,5.8,-,N/A,,Mostly Cloudy,230,2013-06-20 17:53:00
11:53 AM,62.1,48.9,62,30.06,10.0,SW,6.9,-,N/A,,Mostly Cloudy,230,2013-06-20 18:53:00
12:53 PM,66.0,48.9,54,30.05,10.0,South,9.2,-,N/A,,Mostly Cloudy,180,2013-06-20 19:53:00
1:53 PM,68.0,48.0,49,30.05,10.0,WSW,15.0,-,N/A,,Mostly Cloudy,240,2013-06-20 20:53:00
2:53 PM,64.0,53.1,67,30.06,10.0,Calm,Calm,-,0.00,,Mostly Cloudy,0,2013-06-20 21:53:00
3:53 PM,68.0,46.9,47,30.06,10.0,Variable,3.5,-,N/A,,Overcast,0,2013-06-20 22:53:00
4:53 PM,68.0,48.0,49,30.06,10.0,SW,6.9,-,N/A,,Overcast,220,2013-06-20 23:53:00
5:53 PM,66.0,51.1,59,30.07,10.0,Calm,Calm,-,N/A,,Overcast,0,2013-06-21 00:53:00
6:53 PM,64.9,50.0,58,30.08,10.0,North,8.1,-,N/A,,Mostly Cloudy,10,2013-06-21 01:53:00
7:53 PM,64.0,48.9,58,30.10,10.0,North,5.8,-,N/A,,Mostly Cloudy,10,2013-06-21 02:53:00
8:53 PM,62.1,46.9,58,30.10,10.0,North,9.2,-,N/A,,Mostly Cloudy,360,2013-06-21 03:53:00
9:53 PM,60.1,48.0,64,30.13,10.0,North,8.1,-,N/A,,Mostly Cloudy,350,2013-06-21 04:53:00
10:53 PM,59.0,48.0,67,30.15,10.0,North,5.8,-,N/A,,Mostly Cloudy,350,2013-06-21 05:53:00
11:53 PM,57.9,48.9,72,30.15,10.0,North,3.5,-,N/A,,Mostly Cloudy,350,2013-06-21 06:53:00